| time (UTC) | temp F | wind direction | speed MPH | gust MPH | rain 1hr in | rain 24hr in | rain mn in | humidity % | barometer mb |
| 20260504050022 | 54 | 123 | 4.0 | 7.0 | 0.00 | 0.00 | 0.00 | 40 | 1011.6 |
| 20260504044526 | 54 | 153 | 5.0 | 7.0 | 0.00 | 0.00 | 0.00 | 38 | 1011.5 |
| 20260504043008 | 54 | 173 | 4.0 | 6.0 | 0.00 | 0.00 | 0.00 | 39 | 1011.3 |
| 20260504041514 | 57 | 202 | 1.0 | 3.0 | 0.00 | 0.00 | 0.00 | 33 | 1011.2 |
| 20260504040022 | 57 | 85 | 0.0 | 2.0 | 0.00 | 0.00 | 0.00 | 33 | 1010.9 |
| 20260504034520 | 57 | 67 | 1.0 | 2.0 | 0.00 | 0.00 | 0.00 | 35 | 1010.6 |
| 20260504033026 | 57 | 56 | 0.0 | 2.0 | 0.00 | 0.00 | 0.00 | 34 | 1010.4 |
| 20260504031531 | 57 | 71 | 1.0 | 5.0 | 0.00 | 0.00 | 0.00 | 34 | 1010.3 |
| 20260504030025 | 57 | 13 | 0.0 | 4.0 | 0.00 | 0.00 | 0.00 | 34 | 1010.2 |
| 20260504024533 | 58 | 75 | 1.0 | 3.0 | 0.00 | 0.00 | 0.00 | 36 | 1010.1 |
| 20260504023025 | 61 | 19 | 0.0 | 3.0 | 0.00 | 0.00 | 0.00 | 36 | 1010.2 |
| 20260504021527 | 63 | 344 | 0.0 | 2.0 | 0.00 | 0.00 | 0.00 | 34 | 1010.1 |
| 20260504020014 | 65 | 59 | 1.0 | 5.0 | 0.00 | 0.00 | 0.00 | 36 | 1010.2 |
| 20260504014530 | 67 | 19 | 0.0 | 0.0 | 0.00 | 0.00 | 0.00 | 30 | 1010.2 |
| 20260504013034 | 69 | 5 | 0.0 | 2.0 | 0.00 | 0.00 | 0.00 | 30 | 1010.3 |
| 20260504011526 | 70 | 360 | 1.0 | 3.0 | 0.00 | 0.00 | 0.00 | 24 | 1010.4 |
| 20260504010028 | 70 | 352 | 1.0 | 4.0 | 0.00 | 0.00 | 0.00 | 26 | 1010.6 |
| 20260504004517 | 70 | 325 | 0.0 | 4.0 | 0.00 | 0.00 | 0.00 | 25 | 1010.7 |
| 20260504003021 | 69 | 281 | 2.0 | 9.0 | 0.00 | 0.00 | 0.00 | 27 | 1010.8 |
| 20260504001508 | 68 | 289 | 4.0 | 8.0 | 0.00 | 0.00 | 0.00 | 24 | 1011.0 |
| 20260504000018 | 70 | 325 | 3.0 | 11.0 | 0.00 | 0.00 | 0.00 | 24 | 1011.1 |
| 20260503234515 | 70 | 299 | 5.0 | 11.0 | 0.00 | 0.00 | 0.00 | 24 | 1011.2 |
| 20260503233021 | 69 | 337 | 5.0 | 13.0 | 0.00 | 0.00 | 0.00 | 24 | 1011.3 |
| 20260503231507 | 70 | 313 | 4.0 | 9.0 | 0.00 | 0.00 | 0.00 | 24 | 1011.5 |
| 20260503230008 | 69 | 281 | 3.0 | 8.0 | 0.00 | 0.00 | 0.00 | 25 | 1011.7 |
| 20260503224513 | 69 | 276 | 7.0 | 11.0 | 0.00 | 0.00 | 0.00 | 26 | 1011.9 |
| 20260503223020 | 70 | 238 | 8.0 | 16.0 | 0.00 | 0.00 | 0.00 | 28 | 1012.1 |
| 20260503221518 | 69 | 280 | 7.0 | 15.0 | 0.00 | 0.00 | 0.00 | 30 | 1012.3 |
| 20260503220008 | 69 | 288 | 4.0 | 7.0 | 0.00 | 0.00 | 0.00 | 31 | 1012.7 |
| 20260503214517 | 68 | 352 | 4.0 | 10.0 | 0.00 | 0.00 | 0.00 | 27 | 1013.0 |
| 20260503213015 | 68 | 273 | 2.0 | 9.0 | 0.00 | 0.00 | 0.00 | 27 | 1013.2 |
| 20260503211522 | 67 | 234 | 7.0 | 14.0 | 0.00 | 0.00 | 0.00 | 35 | 1013.5 |
| 20260503210023 | 67 | 171 | 4.0 | 9.0 | 0.00 | 0.00 | 0.00 | 31 | 1013.7 |
| 20260503204508 | 67 | 311 | 2.0 | 7.0 | 0.00 | 0.00 | 0.00 | 30 | 1014.0 |
| 20260503203035 | 66 | 302 | 7.0 | 12.0 | 0.00 | 0.00 | 0.00 | 32 | 1014.3 |
| 20260503201522 | 66 | 238 | 3.0 | 8.0 | 0.00 | 0.00 | 0.00 | 34 | 1014.5 |
| 20260503200026 | 65 | 319 | 7.0 | 12.0 | 0.00 | 0.00 | 0.00 | 32 | 1014.7 |
| 20260503194535 | 66 | 247 | 6.0 | 12.0 | 0.00 | 0.00 | 0.00 | 32 | 1014.8 |
| 20260503193015 | 64 | 296 | 6.0 | 11.0 | 0.00 | 0.00 | 0.00 | 35 | 1015.1 |
| 20260503191518 | 65 | 345 | 3.0 | 5.0 | 0.00 | 0.00 | 0.00 | 35 | 1015.4 |
| 20260503190035 | 65 | 329 | 3.0 | 5.0 | 0.00 | 0.00 | 0.00 | 34 | 1015.6 |
| 20260503184526 | 64 | 329 | 3.0 | 7.0 | 0.00 | 0.00 | 0.00 | 35 | 1015.7 |
| 20260503183023 | 64 | 348 | 2.0 | 8.0 | 0.00 | 0.00 | 0.00 | 37 | 1015.8 |
| 20260503181527 | 63 | 302 | 2.0 | 7.0 | 0.00 | 0.00 | 0.00 | 40 | 1016.0 |
| 20260503174525 | 62 | 56 | 1.0 | 6.0 | 0.00 | 0.00 | 0.00 | 43 | 1016.3 |
| 20260503173024 | 61 | 9 | 2.0 | 6.0 | 0.00 | 0.00 | 0.00 | 43 | 1016.5 |
| 20260503171514 | 59 | 290 | 2.0 | 6.0 | 0.00 | 0.00 | 0.00 | 44 | 1016.6 |
| 20260503081529 | 47 | 98 | 2.0 | 4.0 | 0.00 | 0.00 | 0.00 | 59 | 1017.1 |
| 20260503071529 | 49 | 136 | 4.0 | 7.0 | 0.00 | 0.00 | 0.00 | 55 | 1017.3 |